Location: Peebles
(55.6412°N, 3.1714°W)
Time: 21:08:06
(UTC+01:00)

deb AGENA D - Pass Details

Date: 10 July 2022
Orbit: 951 x 1019 km, 99.8° (Epoch: 17 August)

Event Time Altitude Azimuth Distance (km) Brightness Sun altitude
Exits shadow 02:41:31 12° 187° (S) 2,668 ? -10.1°
Maximum altitude 02:47:14 48° 260° (W) 1,301 ? -9.8°
Drops below altitude 10° 02:53:20 10° 334° (NNW) 2,802 ? -9.5°
Sets 02:55:56 0° 341° (NNW) 3,748 ? -9.4°
